Regional Weather Roundup
Issued by NWS

Home | Current Version | Previous Version | Graphics & Text | Print | Product List | Glossary On
Versions: 1 2 3 4 5 6 7 8 9 10 11 12 13 14 15 16 17 18 19 20 21 22 23 24 25 26 27 28 29 30 31 32 33 34 35 36 37 38 39 40 41 42 43 44 45 46 47 48 49 50
000
ASUS43 KBIS 300510
RWRND

NORTH DAKOTA REGIONAL WEATHER ROUNDUP
NATIONAL WEATHER SERVICE BISMARCK ND
1200 AM CDT MON MAR 30 2015

NOTE: "FAIR" INDICATES FEW OR NO CLOUDS BELOW 12,000 FEET WITH NO
SIGNIFICANT WEATHER AND/OR OBSTRUCTIONS TO VISIBILITY.


NDZ001>003-009>011-017-300600-
NORTHWEST NORTH DAKOTA

CITY           SKY/WX    TMP DP  RH WIND       PRES   REMARKS
WILLISTON      CLEAR     44  33  65 S7        29.87F
MINOT          MOCLDY    39  31  72 SE5       29.88F
MINOT AFB      MOCLDY    37  37  99 S8        29.87F
$$

NDZ018>021-031>035-040>046-300600-
SOUTHWEST NORTH DAKOTA

CITY           SKY/WX    TMP DP  RH WIND       PRES   REMARKS
BISMARCK       CLOUDY    41  30  65 CALM      29.94F
DICKINSON      MOCLDY    39  28  64 SW6       29.92F
GARRISON         N/A     40  31  70 S5        29.89F
HETTINGER ARPT MOCLDY    35  28  75 CALM      29.98F
$$

NDZ004>008-012>016-024-026-027-054-300600-
NORTHEAST NORTH DAKOTA

CITY           SKY/WX    TMP DP  RH WIND       PRES   REMARKS
GRAND FORKS    CLEAR     32  27  81 W7        29.90S
GRND FRKS AFB  CLEAR     35  28  74 W6        29.91R
DEVILS LAKE    PTCLDY    32  27  80 CALM      29.89F
$$

NDZ022-023-025-028>030-036>039-047>053-300600-
SOUTHEAST NORTH DAKOTA

CITY           SKY/WX    TMP DP  RH WIND       PRES   REMARKS
FARGO          CLEAR     37  27  67 W6        29.92S
JAMESTOWN      PTCLDY    38  29  70 W5        29.93F
$$




USA.gov is the U.S. government's official web portal to all federal, state and local government web resources and services.